Showing default

HJS-6B, 63429

Orbit data source: Space-Track

HJS-6B, 63429 is a payload satellite owned by Zhongguo Xingwang (CN) in LEO that was launched on Tue, 01 Apr 2025 UTC via a CHANG ZHENG 2D launch vehicle from the Jiuquan Satellite Launch Center, China (JSC). Payload-class satellites include a variety of spacecraft equipped with specific instruments for various scientific and technological missions. These include communications satellites like Starlink; space stations such as the ISS; scientific satellites like the Hubble; Earth observation satellites from companies like Planet Labs, Umbra, and HawkEye 360; GPS; miniature CubeSats for education and research; and military/defense satellites.

Loading next visibility...
Identifier
63429, 2025-067B
Orbit
LEO
Country
Flag of CNCN / PRC
Related business
Manufacturer
YINNT
Mission
Operational Civil Communications
Bus & Motor
Unknown
Mass
~300 kg wet, ~300 kg dry
Launch date (UTC)
2025-04-01 (1 year ago)
Launch vehicle
CHANG ZHENG 2D
Launch site
Jiuquan Satellite Launch Center, China (JSC)
Object type
Payload
Rocket body
Debris
Shape & HBR
Box + 2 Pan, 1.1 m
Radar Cross Section
2.320 m², Large (>1 m²)

Expand to show TLE details & history
Last TLE update: 15 hours ago

TLE from 15 hours ago
0 HJS-6B
1 63429U 25067B   26125.71601345  .00007201  00000-0  26388-3 0  9997
2 63429  54.9913 214.7441 0005307 208.5186 151.5548 15.29082851 61462
Epoch: 2026-05-05T17:11Z
TLE epoch observation values (Epoch: 2026-05-05T17:11:03.562Z)
Latitude
-0.00001°
Longitude
93.39238°
Altitude
482.847 km
Speed
7.623 km/s
True Right ascension
14h 18m 58s
True Declination
0° 00' 00"
Sunlit
Object was in full shadow at epoch
Visualization orbit readout
Latitude
Unknown
Longitude
Unknown
Altitude
Unknown
Speed
Unknown
Apparent Right ascension
Unknown
Apparent Declination
Unknown
Sunlit
N/A
Visualization observer readout
Local Sidereal Time
16:36:55
Azimuth
Unknown
Elevation
Unknown
Doppler factor
Unknown
Orbital elements
Apogee altitude
482.155 km
Perigee altitude
474.878 km
Semi-major axis
6,856.653 km
Eccentricity
0.00053
Inclination
54.9913°
RAAN
214.7441°
Arg. of periapsis
208.5186°
True anomaly
151.58375°
Mean anomaly
151.5548°
Eccentric anomaly
151.56928°
Mean motion
3.82274 °/min
Orbital period
94.17 mins
BSTAR
0.00026388
Loading maneuver chart data...
Computing Atmospheric mass density...
Loading historical data...
Loading historical data...
Loading historical data...
Loading historical data...
Loading historical data...
Loading historical data...
Loading historical data...
Other satellites on launch #67 in the year 2025 (2025-04-01 UTC)

Documentation

Showing up to 5 results
|